Date String (YYYY-MM-DD hh:mm:ss) UTC,Instrument flags,Ambient pressure (hPa),Sample flow (lpm),Bypass flow (lpm),Sample temperature (°C),Ambient temperature (°C),ASC tube jacket temperature (°C),LED temperature (°C),Box temperature (°C),Sample RH (%),Span deviation,Mass concentration (μg/m³),Mass concentration (μg/m³),Mass concentration (μg/m³)
DateTimeUTC,F1_M11,P_M11,Q1_M11,Q2_M11,T1_M11,T2_M11,T3_M11,T4_M11,T5_M11,U1_M11,ZSPAN_M11,X2_M11,X0_M11,X1_M11
2023-04-26 04:00:00,,0829.7,5.01,0.00,23.5,21.9,00.0,31.9,25.0,25.2,0000.0,0001.07,0001.82,0000.79
2023-04-26 04:01:00,,0829.8,5.00,0.00,23.5,21.9,00.0,31.9,25.0,25.3,0000.0,0001.10,0001.98,0000.81
2023-04-26 04:02:00,,0829.7,5.00,0.00,23.5,21.9,00.0,31.9,25.0,25.3,0000.0,0001.08,0001.97,0000.81
2023-04-26 04:03:00,,0829.7,4.99,0.00,23.5,21.9,00.0,31.9,25.0,25.3,0000.0,0001.09,0002.05,0000.82
2023-04-26 04:04:00,,0829.7,5.01,0.00,23.5,21.9,00.0,31.9,25.0,25.3,0000.0,0001.14,0002.15,0000.84
2023-04-26 04:05:00,,0829.8,5.00,0.00,23.4,21.9,00.0,31.9,25.0,25.4,0000.0,0001.15,0002.08,0000.85
2023-04-26 04:06:00,,0829.8,5.00,0.00,23.4,21.9,00.0,31.9,25.0,25.3,0000.0,0001.17,0002.11,0000.85
2023-04-26 04:07:00,,0829.8,5.00,0.00,23.4,21.9,00.0,31.9,25.0,25.3,0000.0,0001.24,0002.26,0000.87
2023-04-26 04:08:00,,0829.8,5.00,0.00,23.4,21.9,00.0,31.9,25.0,25.4,0000.0,0001.28,0002.41,0000.88
2023-04-26 04:09:00,,0829.8,5.00,0.00,23.4,21.9,00.0,31.9,25.0,25.4,0000.0,0001.26,0002.35,0000.89
2023-04-26 04:10:00,,0829.8,5.00,0.00,23.4,21.9,00.0,31.9,25.0,25.3,0000.0,0001.25,0002.34,0000.89
2023-04-26 04:11:00,,0829.8,5.00,0.00,23.4,21.9,00.0,31.9,24.9,25.3,0000.0,0001.25,0002.36,0000.87
2023-04-26 04:12:00,,0829.8,5.00,0.00,23.4,21.9,00.0,31.9,24.9,25.4,0000.0,0001.23,0002.68,0000.86
2023-04-26 04:13:00,,0829.8,5.00,0.00,23.4,21.9,00.0,31.9,25.0,25.4,0000.0,0001.24,0002.65,0000.86
2023-04-26 04:14:00,,0829.8,5.00,0.00,23.4,21.9,00.0,31.9,25.0,25.3,0000.0,0001.23,0002.62,0000.86
2023-04-26 04:15:00,,0829.8,5.01,0.00,23.4,21.9,00.0,31.8,25.0,25.3,0000.0,0001.19,0002.55,0000.84
2023-04-26 04:16:00,,0829.8,5.00,0.00,23.4,21.9,00.0,31.8,25.0,25.4,0000.0,0001.18,0002.59,0000.84
2023-04-26 04:17:00,,0829.8,5.00,0.00,23.4,21.9,00.0,31.8,24.9,25.4,0000.0,0001.19,0002.66,0000.83
2023-04-26 04:18:00,,0829.8,5.00,0.00,23.4,21.9,00.0,31.8,25.0,25.4,0000.0,0001.17,0002.66,0000.82
2023-04-26 04:19:00,,0829.9,5.00,0.00,23.4,21.9,00.0,31.8,25.0,25.4,0000.0,0001.16,0002.63,0000.81
2023-04-26 04:20:00,,0830.0,5.00,0.00,23.4,21.9,00.0,31.8,25.0,25.4,0000.0,0001.17,0002.69,0000.80
2023-04-26 04:21:00,,0829.9,5.00,0.00,23.4,21.9,00.0,31.8,25.0,25.4,0000.0,0001.21,0002.83,0000.79
2023-04-26 04:22:00,,0829.9,5.00,0.00,23.4,21.9,00.0,31.8,25.0,25.4,0000.0,0001.21,0002.85,0000.80
2023-04-26 04:23:00,,0829.9,5.00,0.00,23.4,21.9,00.0,31.8,25.0,25.4,0000.0,0001.19,0002.40,0000.79
2023-04-26 04:24:00,,0829.9,5.00,0.00,23.4,21.9,00.0,31.8,24.9,25.4,0000.0,0001.18,0003.08,0000.78
2023-04-26 04:25:00,,0829.9,4.99,0.00,23.4,21.8,00.0,31.8,25.0,25.4,0000.0,0001.19,0003.33,0000.78
2023-04-26 04:26:00,,0829.8,5.00,0.00,23.4,21.8,00.0,31.8,24.9,25.4,0000.0,0001.19,0003.29,0000.78
2023-04-26 04:27:00,,0829.9,5.01,0.00,23.4,21.8,00.0,31.8,24.9,25.4,0000.0,0001.20,0003.21,0000.78
2023-04-26 04:28:00,,0829.8,5.00,0.00,23.4,21.8,00.0,31.8,24.9,25.4,0000.0,0001.21,0003.20,0000.78
2023-04-26 04:29:00,,0829.9,4.99,0.00,23.4,21.8,00.0,31.8,24.9,25.4,0000.0,0001.18,0003.13,0000.78
2023-04-26 04:30:00,,0829.8,4.99,0.00,23.4,21.8,00.0,31.8,24.9,25.5,0000.0,0001.18,0003.12,0000.78
2023-04-26 04:31:00,,0829.9,4.99,0.00,23.4,21.8,00.0,31.8,24.9,25.5,0000.0,0001.16,0003.03,0000.79
2023-04-26 04:32:00,,0829.8,5.00,0.00,23.4,21.8,00.0,31.8,24.9,25.4,0000.0,0001.14,0002.92,0000.79
2023-04-26 04:33:00,,0829.8,5.00,0.00,23.4,21.8,00.0,31.8,24.9,25.5,0000.0,0001.14,0002.97,0000.80
2023-04-26 04:34:00,,0829.8,4.99,0.00,23.4,21.8,00.0,31.8,24.9,25.4,0000.0,0001.12,0002.91,0000.80
2023-04-26 04:35:00,,0829.8,5.00,0.00,23.4,21.8,00.0,31.8,25.0,25.4,0000.0,0001.08,0002.06,0000.79
2023-04-26 04:36:00,,0829.8,5.00,0.00,23.4,21.8,00.0,31.8,24.9,25.4,0000.0,0001.06,0001.75,0000.79
2023-04-26 04:37:00,,0829.8,5.01,0.00,23.3,21.8,00.0,31.8,24.9,25.4,0000.0,0001.06,0001.76,0000.78
2023-04-26 04:38:00,,0829.8,5.00,0.00,23.3,21.8,00.0,31.8,24.9,25.5,0000.0,0001.01,0001.67,0000.78
2023-04-26 04:39:00,,0829.8,5.00,0.00,23.4,21.9,00.0,31.8,24.9,25.4,0000.0,0000.96,0001.54,0000.77
2023-04-26 04:40:00,,0829.8,5.00,0.00,23.3,21.8,00.0,31.8,24.9,25.4,0000.0,0000.95,0001.50,0000.77
2023-04-26 04:41:00,,0829.8,5.00,0.00,23.3,21.8,00.0,31.8,24.9,25.5,0000.0,0000.94,0001.46,0000.77
2023-04-26 04:42:00,,0829.8,5.00,0.00,23.3,21.8,00.0,31.7,24.9,25.5,0000.0,0000.93,0001.45,0000.76
2023-04-26 04:43:00,,0829.8,5.01,0.00,23.3,21.8,00.0,31.7,24.9,25.5,0000.0,0000.94,0001.64,0000.76
2023-04-26 04:44:00,,0829.8,5.01,0.00,23.3,21.8,00.0,31.7,24.9,25.4,0000.0,0000.94,0001.96,0000.76
2023-04-26 04:45:00,,0829.8,5.01,0.00,23.3,21.8,00.0,31.7,24.9,25.4,0000.0,0000.98,0002.27,0000.77
2023-04-26 04:46:00,,0829.8,4.99,0.00,23.3,21.8,00.0,31.7,24.9,25.5,0000.0,0001.08,0002.62,0000.79
2023-04-26 04:47:00,,0829.8,5.00,0.00,23.3,21.8,00.0,31.7,24.9,25.5,0000.0,0001.16,0003.10,0000.80
2023-04-26 04:48:00,,0829.8,5.00,0.00,23.3,21.8,00.0,31.7,24.9,25.5,0000.0,0001.25,0003.66,0000.83
2023-04-26 04:49:00,,0829.8,4.99,0.00,23.3,21.8,00.0,31.7,24.9,25.4,0000.0,0001.36,0003.98,0000.86
2023-04-26 04:50:00,,0829.8,5.00,0.00,23.3,21.8,00.0,31.7,24.9,25.4,0000.0,0001.45,0004.12,0000.89
2023-04-26 04:51:00,,0829.8,4.99,0.00,23.3,21.7,00.0,31.7,24.9,25.5,0000.0,0001.48,0004.14,0000.91
2023-04-26 04:52:00,,0829.8,5.00,0.00,23.3,21.7,00.0,31.7,24.9,25.5,0000.0,0001.54,0004.28,0000.94
2023-04-26 04:53:00,,0829.8,5.00,0.00,23.3,21.7,00.0,31.7,24.9,25.5,0000.0,0001.61,0004.63,0000.97
2023-04-26 04:54:00,,0829.9,5.00,0.00,23.3,21.7,00.0,31.7,24.9,25.5,0000.0,0001.70,0004.90,0001.01
2023-04-26 04:55:00,,0829.9,5.00,0.00,23.3,21.7,00.0,31.7,24.9,25.5,0000.0,0001.77,0005.25,0001.04
2023-04-26 04:56:00,,0829.8,5.00,0.00,23.3,21.7,00.0,31.7,24.9,25.5,0000.0,0001.98,0006.71,0001.08
2023-04-26 04:57:00,,0829.9,5.00,0.00,23.3,21.7,00.0,31.7,24.9,25.5,0000.0,0002.11,0007.67,0001.11
2023-04-26 04:58:00,,0829.8,5.01,0.00,23.3,21.7,00.0,31.7,24.9,25.5,0000.0,0002.16,0007.89,0001.14
2023-04-26 04:59:00,,0829.8,5.00,0.00,23.2,21.7,00.0,31.7,24.8,25.5,0000.0,0002.16,0008.68,0001.15
